Regional Weather Roundup
Issued by NWS

Home | Current Version | Previous Version | Text Only | Print | Product List | Glossary On
Versions: 1 2 3 4 5 6 7 8 9 10 11 12 13 14 15 16 17 18 19 20 21 22 23 24 25 26 27 28 29 30 31 32 33 34 35 36 37 38 39 40 41 42 43 44 45 46 47 48 49 50
789
ASUS44 KJAN 251703
RWRMS

MISSISSIPPI HOURLY WEATHER ROUNDUP
NATIONAL WEATHER SERVICE JACKSON MS
1100 AM CST TUE NOV 25 2014

NOTE: "FAIR: INDICATES FEW OR NO CLOUDS BELOW 12,000 FEET WITH NO
SIGNIFICANT WEATHER AND/OR OBSTRUCTIONS TO VISIBILITY.

MSZ001>002-007>008-010>013-018>021-025>028-034>036-251800-
NORTHWEST MISSISSIPPI

CITY           SKY/WX    TMP DP  RH WIND       PRES   REMARKS
CLARKSDALE     FAIR      46  30  53 NW14      30.27F
CLEVELAND      FAIR      47  32  55 N9        30.27S
GREENWOOD      PTSUNNY   50  32  50 N6        30.24F
GREENVILLE     PTSUNNY   50  29  44 N13       30.27S
GRENADA        FAIR      48  27  43 CALM      30.23F
OLIVE BRANCH   PTSUNNY   45  23  42 NW9       30.23F
OXFORD         FAIR      46  23  39 NW10G16   30.24F
TUNICA         PTSUNNY   45  28  53 NW8       30.28S
$$

MSZ003>006-009-014>017-022>024-029>033-037>039-251800-
NORTHEAST MISSISSIPPI

CITY           SKY/WX    TMP DP  RH WIND       PRES   REMARKS
COLUMBUS AFB   PTSUNNY   49  30  47 NW9       30.20F
CORINTH        FAIR      46  28  49 NW9       30.20F
GOLDN TRIANGLE SUNNY     50  30  46 NW8       30.19F
STARKVILLE     FAIR      50  28  43 NE6       30.21F
TUPELO         PTSUNNY   46  29  51 NE13      30.21F
$$

MSZ040-058-251800-
CENTRAL MISSISSIPPI

CITY           SKY/WX    TMP DP  RH WIND       PRES   REMARKS
JACKSON INTL   CLOUDY    53  29  39 N9        30.23R
JACKSON HAWKNS CLOUDY    51  28  41 N8        30.23R
MERIDIAN KEY   SUNNY     56  29  35 N10       30.17F
MERIDIAN NAS   SUNNY     55  30  38 N10       30.18F
RAYMOND        FAIR      48  45  87 N7        30.24S
VICKSBURG      CLOUDY    50  30  46 N12       30.27R
$$

MSZ059>079-251800-
SOUTH MISSISSIPPI

CITY           SKY/WX    TMP DP  RH WIND       PRES   REMARKS
BROOKHAVEN     FAIR      52  34  50 NW7       30.23S
COLUMBIA       FAIR      55  30  38 MISG        N/A
HATTIESBURG      N/A    N/A N/A N/A MISG      30.19R
MCCOMB           N/A     55  22  27 N16G22    30.20S
NATCHEZ        CLOUDY    48  34  57 N5        30.26R
PINE BELT      PTSUNNY   55  32  41 N8        30.19R
$$

MSZ080>082-251800-
COASTAL MISSISSIPPI

CITY           SKY/WX    TMP DP  RH WIND       PRES   REMARKS
BAY ST LOUIS   PTSUNNY   57  28  33 N12       30.18R
BILOXI         MOSUNNY   59  32  36 NE9G25    30.14S
PASCAGOULA     PTSUNNY   61  33  35 N16G24    30.11F
GULFPORT       MOSUNNY   58  31  35 N17       30.14F
$$



USA.gov is the U.S. government's official web portal to all federal, state and local government web resources and services.